Weather History for Jaipur / Sanganer, India

Change the Weather History Date:

Thursday, March 21, 2013

  Actual Average Record
Temperature  
Mean Temperature 81 °F -  
Max Temperature 94 °F - - ()
Min Temperature 68 °F - - ()
Cooling Degree Days 16    
Growing Degree Days 31 (Base 50)    
Moisture  
Dew Point 45 °F    
Average Humidity 28    
Maximum Humidity 52    
Minimum Humidity 9    
Precipitation  
Precipitation 0.00 in - - ()
Sea Level Pressure  
Sea Level Pressure 29.85 in    
Wind  
Wind Speed 2 mph ()    
Max Wind Speed 8 mph    
Max Gust Speed -    
Visibility 1.7 miles    
Events      
T = Trace of Precipitation, MM = Missing Value Source: Averaged Metar Reports

Daily Weather History Graph

Daily Weather History Graph

Search for Another Location

Airport:

Trip Planner

Search our weather history database for the weather conditions in past years. The results will help you decide how hot, cold, wet, or windy it might be!

Date:

Astronomy

Mar. 21, 2013 Rise Set
Actual Time 6:29 AM IST 6:38 PM IST
Civil Twilight 6:06 AM IST 7:01 PM IST
Nautical Twilight 5:39 AM IST 7:28 PM IST
Astronomical Twilight 5:12 AM IST 7:55 PM IST
Moon 1:10 PM IST 2:04 AM IST
Length of Visible Light 12h 55m
Length of Day
12h 08m
Waxing Gibbous, 65% of the Moon is Illuminated
Mar 21
Waxing Gibbous
Mar 27
Full
Apr 3
Last Quarter
Apr 10
New
Apr 18
First Quarter

Hourly Weather History & Observations

Time (IST) Temp. Dew Point Humidity Pressure Visibility Wind Dir Wind Speed Gust Speed Precip Events Conditions
12:00 AM 80.6 °F 39.2 °F 23% 29.89 in 1.6 mi Calm Calm - N/A   Haze
2:00 AM 77.0 °F 41.0 °F 28% 29.86 in 1.6 mi Variable 1.2 mph - N/A   Haze
2:30 AM 76 °F 42 °F 20% 29.80 in 1 mi East 4.6 mph - -   Haze
3:00 AM 71.6 °F 44.6 °F 38% 29.86 in 1.6 mi Variable 2.3 mph - N/A   Haze
4:00 AM 75.2 °F 48.2 °F 38% 29.86 in 1.6 mi ENE 5.8 mph - N/A   Haze
5:00 AM 73.4 °F 48.2 °F 41% 29.86 in 1.6 mi SE 3.5 mph - N/A   Haze
5:30 AM 71 °F 50 °F 37% 29.81 in 1 mi 2.3 mph - -   Haze
5:30 AM 69.8 °F 48.2 °F 46% 29.86 in 1.6 mi Calm Calm - N/A   Haze
6:00 AM 69.8 °F 48.2 °F 46% 29.86 in 1.6 mi Calm Calm - N/A   Haze
6:30 AM 69.8 °F 48.2 °F 46% 29.89 in 1.6 mi Calm Calm - N/A   Haze
7:00 AM 68.0 °F 50.0 °F 52% 29.89 in 1.2 mi Calm Calm - N/A   Haze
8:00 AM 75.2 °F 50.0 °F 41% 29.92 in 1.2 mi Calm Calm - N/A   Smoke
8:30 AM 76 °F 53 °F 35% 29.86 in 1 mi Calm Calm - -   Smoke
9:00 AM 80.6 °F 50.0 °F 34% 29.95 in 1.2 mi Calm Calm - N/A   Smoke
10:00 AM 84.2 °F 48.2 °F 29% 29.95 in 1.2 mi SSE 4.6 mph - N/A   Smoke
12:00 PM 87.8 °F 48.2 °F 25% 29.92 in 2.5 mi Calm Calm - N/A   Haze
1:00 PM 91.4 °F 48.2 °F 23% 29.89 in 2.5 mi Variable 3.5 mph - N/A   Haze
2:00 PM 91.4 °F 44.6 °F 20% 29.86 in 2.5 mi SW 5.8 mph - N/A   Haze
3:30 PM 93.2 °F 37.4 °F 14% 29.83 in 2.5 mi Variable 4.6 mph - N/A   Haze
4:00 PM 93.2 °F 35.6 °F 13% 29.80 in 2.5 mi Variable 4.6 mph - N/A   Haze
5:00 PM 93.2 °F 35.6 °F 13% 29.80 in 2.5 mi Variable 8.1 mph - N/A   Haze
5:30 PM 91 °F 40 °F 9% 29.73 in 1 mi 3.5 mph - -   Haze
6:00 PM 91.4 °F 37.4 °F 15% 29.80 in 2.5 mi Variable 6.9 mph - N/A   Haze
6:30 PM 89.6 °F 41.0 °F 18% 29.83 in 2.2 mi Variable 3.5 mph - N/A   Haze
8:00 PM 89.6 °F 46.4 °F 22% 29.83 in 1.9 mi NE 4.6 mph - N/A   Haze
8:30 PM 84 °F 45 °F 16% 29.76 in 1 mi NE 4.6 mph - -   Haze
9:00 PM 84.2 °F 46.4 °F 27% 29.86 in 1.9 mi Variable 6.9 mph - N/A   Haze
10:00 PM 82.4 °F 48.2 °F 30% 29.86 in 1.9 mi NE 5.8 mph - N/A   Haze
11:00 PM 80.6 °F 48.2 °F 32% 29.86 in 1.9 mi NE 5.8 mph - N/A   Haze
11:30 PM 80 °F 47 °F 21% 29.78 in 1 mi NE 2.3 mph - -   Haze